TimeCST,TemperatureF,Dew PointF,Humidity,Sea Level PressureIn,VisibilityMPH,Wind Direction,Wind SpeedMPH,Gust SpeedMPH,PrecipitationIn,Events,Conditions,WindDirDegrees,DateUTC
12:15 AM,69.8,66.2,88,30.03,10.0,SSE,17.3,-,N/A,,Overcast,150,2014-01-02 06:15:00
12:35 AM,69.8,66.2,88,30.03,10.0,SSE,12.7,-,N/A,,Overcast,150,2014-01-02 06:35:00
12:55 AM,69.8,66.2,88,30.03,10.0,SSE,13.8,-,N/A,,Overcast,150,2014-01-02 06:55:00
1:15 AM,69.8,66.2,88,30.01,10.0,SSE,16.1,-,N/A,,Overcast,150,2014-01-02 07:15:00
1:35 AM,69.8,66.2,88,29.99,10.0,SSE,15.0,-,N/A,,Mostly Cloudy,150,2014-01-02 07:35:00
1:55 AM,69.8,66.2,88,30.00,10.0,SSE,12.7,-,N/A,,Overcast,150,2014-01-02 07:55:00
2:15 AM,69.8,66.2,88,30.00,10.0,SSE,11.5,-,N/A,,Overcast,160,2014-01-02 08:15:00
2:35 AM,69.8,66.2,88,29.99,10.0,SSE,12.7,-,N/A,,Mostly Cloudy,160,2014-01-02 08:35:00
2:55 AM,69.8,68.0,94,29.98,10.0,SSE,12.7,-,N/A,,Overcast,160,2014-01-02 08:55:00
3:15 AM,69.8,68.0,94,29.97,10.0,SSE,13.8,-,N/A,,Overcast,160,2014-01-02 09:15:00
3:35 AM,69.8,68.0,94,29.96,10.0,SSE,13.8,-,N/A,,Mostly Cloudy,160,2014-01-02 09:35:00
3:55 AM,69.8,68.0,94,29.95,10.0,SE,12.7,-,N/A,,Mostly Cloudy,140,2014-01-02 09:55:00
4:15 AM,69.8,68.0,94,29.96,10.0,SSE,11.5,-,N/A,,Mostly Cloudy,150,2014-01-02 10:15:00
4:35 AM,69.8,68.0,94,29.96,10.0,South,10.4,-,N/A,,Overcast,170,2014-01-02 10:35:00
4:55 AM,69.8,68.0,94,29.96,10.0,South,11.5,-,N/A,,Mostly Cloudy,170,2014-01-02 10:55:00
5:15 AM,69.8,68.0,94,29.96,10.0,South,13.8,-,N/A,,Overcast,180,2014-01-02 11:15:00
5:35 AM,69.8,68.0,94,29.95,10.0,South,12.7,-,N/A,,Mostly Cloudy,170,2014-01-02 11:35:00
5:55 AM,69.8,68.0,94,29.95,10.0,South,10.4,-,N/A,,Mostly Cloudy,190,2014-01-02 11:55:00
6:15 AM,68.0,66.2,94,29.95,10.0,SW,19.6,25.3,N/A,,Overcast,230,2014-01-02 12:15:00
6:35 AM,68.0,66.2,94,29.94,10.0,WNW,26.5,-,N/A,,Overcast,300,2014-01-02 12:35:00
6:55 AM,66.2,64.4,94,29.98,10.0,NNW,25.3,32.2,N/A,,Mostly Cloudy,330,2014-01-02 12:55:00
7:15 AM,66.2,64.4,94,29.99,10.0,NNW,19.6,-,N/A,,Overcast,340,2014-01-02 13:15:00
7:35 AM,66.2,64.4,94,30.00,10.0,NNW,16.1,-,N/A,,Overcast,340,2014-01-02 13:35:00
7:55 AM,64.4,64.4,100,30.01,10.0,NNW,17.3,-,N/A,,Mostly Cloudy,330,2014-01-02 13:55:00
8:15 AM,66.2,64.4,94,30.03,10.0,NW,15.0,-,N/A,,Mostly Cloudy,310,2014-01-02 14:15:00
8:35 AM,62.6,60.8,94,30.04,10.0,NNW,32.2,-,N/A,,Overcast,330,2014-01-02 14:35:00
8:55 AM,62.6,60.8,94,30.05,10.0,NNW,25.3,35.7,N/A,,Overcast,330,2014-01-02 14:55:00
9:15 AM,62.6,60.8,94,30.06,10.0,NNW,26.5,-,N/A,,Overcast,330,2014-01-02 15:15:00
9:35 AM,62.6,59.0,88,30.06,10.0,NNW,27.6,-,N/A,,Overcast,330,2014-01-02 15:35:00
9:55 AM,64.4,59.0,83,30.06,10.0,NNW,27.6,-,N/A,,Overcast,330,2014-01-02 15:55:00
10:15 AM,62.6,59.0,88,30.05,10.0,NNW,31.1,-,N/A,,Overcast,330,2014-01-02 16:15:00
10:35 AM,62.6,59.0,88,30.05,10.0,NNW,32.2,-,N/A,,Overcast,330,2014-01-02 16:35:00
10:55 AM,62.6,59.0,88,30.05,10.0,NNW,32.2,-,N/A,,Overcast,330,2014-01-02 16:55:00
11:15 AM,60.8,57.2,88,30.05,10.0,NNW,33.4,-,N/A,,Overcast,330,2014-01-02 17:15:00
11:35 AM,60.8,57.2,88,30.05,10.0,NNW,27.6,-,N/A,,Mostly Cloudy,330,2014-01-02 17:35:00
11:55 AM,60.8,53.6,77,30.03,10.0,NNW,31.1,-,N/A,,Scattered Clouds,340,2014-01-02 17:55:00
12:15 PM,60.8,51.8,72,30.04,10.0,NNW,33.4,-,N/A,,Clear,330,2014-01-02 18:15:00
12:35 PM,60.8,50.0,68,30.02,10.0,NNW,33.4,-,N/A,,Clear,340,2014-01-02 18:35:00
12:55 PM,60.8,50.0,68,30.03,10.0,NNW,35.7,-,N/A,,Clear,330,2014-01-02 18:55:00
1:15 PM,60.8,50.0,68,30.03,10.0,NNW,33.4,40.3,N/A,,Clear,330,2014-01-02 19:15:00
1:35 PM,59.0,51.8,77,30.03,10.0,NNW,33.4,-,N/A,,Clear,340,2014-01-02 19:35:00
1:55 PM,59.0,51.8,77,30.04,10.0,NNW,31.1,-,N/A,,Partly Cloudy,340,2014-01-02 19:55:00
2:15 PM,59.0,51.8,77,30.04,10.0,NNW,32.2,-,N/A,,Mostly Cloudy,340,2014-01-02 20:15:00
2:35 PM,59.0,48.2,67,30.05,10.0,NNW,32.2,-,N/A,,Scattered Clouds,340,2014-01-02 20:35:00
2:55 PM,57.2,48.2,72,30.07,10.0,NNW,35.7,-,N/A,,Clear,340,2014-01-02 20:55:00
3:15 PM,57.2,46.4,67,30.08,10.0,North,34.5,-,N/A,,Clear,350,2014-01-02 21:15:00
3:35 PM,57.2,48.2,72,30.09,10.0,North,-9999.0,-,N/A,,Partly Cloudy,0,2014-01-02 21:35:00
3:55 PM,57.2,46.4,67,30.09,10.0,NNW,36.8,-,N/A,,Clear,340,2014-01-02 21:55:00
4:15 PM,57.2,46.4,67,30.10,10.0,NNW,38.0,-,N/A,,Clear,340,2014-01-02 22:15:00
4:35 PM,55.4,44.6,67,30.11,10.0,North,-9999.0,-,N/A,,Clear,0,2014-01-02 22:35:00
4:55 PM,57.2,44.6,63,30.11,10.0,North,42.6,-,N/A,,Clear,350,2014-01-02 22:55:00
5:15 PM,57.2,44.6,63,30.13,10.0,North,36.8,46.0,N/A,,Clear,350,2014-01-02 23:15:00
5:35 PM,57.2,42.8,59,30.14,10.0,NNW,41.4,-,N/A,,Partly Cloudy,340,2014-01-02 23:35:00
5:55 PM,57.2,42.8,59,30.16,10.0,North,38.0,47.2,N/A,,Partly Cloudy,350,2014-01-02 23:55:00
6:15 PM,55.4,39.2,54,30.17,10.0,North,-9999.0,-,N/A,,Scattered Clouds,0,2014-01-03 00:15:00
6:35 PM,55.4,41.0,58,30.19,10.0,North,39.1,47.2,N/A,,Mostly Cloudy,360,2014-01-03 00:35:00
6:55 PM,55.4,37.4,51,30.21,10.0,North,-9999.0,-,N/A,,Partly Cloudy,0,2014-01-03 00:55:00
7:15 PM,55.4,41.0,58,30.22,10.0,North,36.8,-,N/A,,Mostly Cloudy,360,2014-01-03 01:15:00
7:35 PM,53.6,37.4,54,30.24,10.0,North,-9999.0,-,N/A,,Mostly Cloudy,0,2014-01-03 01:35:00
7:55 PM,53.6,33.8,47,30.25,10.0,North,-9999.0,-,N/A,,Unknown,0,2014-01-03 01:55:00
8:15 PM,53.6,35.6,51,30.27,10.0,North,-9999.0,-,N/A,,Mostly Cloudy,0,2014-01-03 02:15:00
8:35 PM,53.6,32.0,44,30.27,10.0,North,-9999.0,-,N/A,,Partly Cloudy,0,2014-01-03 02:35:00
8:55 PM,53.6,32.0,44,30.29,10.0,North,-9999.0,-,N/A,,Clear,0,2014-01-03 02:55:00
9:15 PM,53.6,30.2,41,30.29,10.0,North,44.9,-,N/A,,Clear,10,2014-01-03 03:15:00
9:35 PM,53.6,35.6,51,30.28,10.0,North,40.3,51.8,N/A,,Clear,360,2014-01-03 03:35:00
9:55 PM,51.8,33.8,50,30.29,10.0,North,41.4,-,N/A,,Clear,360,2014-01-03 03:55:00
10:15 PM,51.8,33.8,50,30.31,10.0,North,36.8,46.0,N/A,,Clear,360,2014-01-03 04:15:00
10:35 PM,51.8,32.0,47,30.31,10.0,North,38.0,46.0,N/A,,Partly Cloudy,360,2014-01-03 04:35:00
10:55 PM,51.8,35.6,54,30.31,10.0,North,35.7,43.7,N/A,,Clear,360,2014-01-03 04:55:00
11:15 PM,50.0,32.0,50,30.31,10.0,North,39.1,-,N/A,,Clear,350,2014-01-03 05:15:00
11:35 PM,50.0,33.8,54,30.31,10.0,North,36.8,43.7,N/A,,Clear,360,2014-01-03 05:35:00
11:55 PM,48.2,35.6,62,30.32,10.0,North,38.0,44.9,N/A,,Clear,360,2014-01-03 05:55:00